Weather History for Crestview, FL

Change the Weather History Date:

Sunday, November 25, 2012

  Actual Average Record
Temperature  
Mean Temperature 45 °F -  
Max Temperature 64 °F - - ()
Min Temperature 26 °F - - ()
Degree Days  
Heating Degree Days 20    
Moisture  
Dew Point 27 °F    
Average Humidity 61    
Maximum Humidity 91    
Minimum Humidity 21    
Precipitation  
Precipitation 0.00 in - - ()
Sea Level Pressure  
Sea Level Pressure 30.18 in    
Wind  
Wind Speed 2 mph (SSW)    
Max Wind Speed 9 mph    
Max Gust Speed -    
Visibility 10 miles    
Events      
T = Trace of Precipitation, MM = Missing Value Source: NWS Daily Summary

Daily Weather History Graph

Daily Weather History Graph

Search for Another Location

Airport:

Trip Planner

Search our weather history database for the weather conditions in past years. The results will help you decide how hot, cold, wet, or windy it might be!

Date:

Astronomy

Nov. 25, 2012 Rise Set
Actual Time 6:21 AM CST 4:45 PM CST
Civil Twilight 5:55 AM CST 5:11 PM CST
Nautical Twilight 5:25 AM CST 5:40 PM CST
Astronomical Twilight 4:56 AM CST 6:09 PM CST
Moon 2:55 PM CST (11/25) 3:42 AM CST (11/25)
Length of Visible Light 11h 15m
Length of Day
10h 23m
Waxing Gibbous, 93% of the Moon is Illuminated
Nov 25
Waxing Gibbous
Nov 28
Full
Dec 6
Last Quarter
Dec 13
New
Dec 19
First Quarter

Hourly Weather History & Observations

Time (CST) Temp. Windchill Dew Point Humidity Pressure Visibility Wind Dir Wind Speed Gust Speed Precip Events Conditions
12:55 AM 32.9 °F - 26.1 °F 76% 30.16 in 10.0 mi Calm Calm - N/A   Clear
1:55 AM 35.6 °F 31.7 °F 25.9 °F 68% 30.16 in 10.0 mi North 4.6 mph - N/A   Clear
2:55 AM 31.6 °F - 25.7 °F 79% 30.17 in 10.0 mi Calm Calm - N/A   Clear
3:55 AM 28.8 °F - 25.2 °F 86% 30.17 in 10.0 mi Calm Calm - N/A   Clear
4:55 AM 27.3 °F - 24.3 °F 88% 30.18 in 10.0 mi Calm Calm - N/A   Clear
5:55 AM 26.8 °F - 24.4 °F 91% 30.20 in 10.0 mi Calm Calm - N/A   Clear
6:55 AM 28.0 °F - 25.7 °F 91% 30.22 in 10.0 mi Calm Calm - N/A   Clear
7:55 AM 39.4 °F - 29.3 °F 67% 30.25 in 10.0 mi Calm Calm - N/A   Clear
8:55 AM 48.2 °F - 25.9 °F 42% 30.26 in 10.0 mi Variable 3.5 mph - N/A   Clear
9:55 AM 53.1 °F - 23.7 °F 32% 30.25 in 10.0 mi Calm Calm - N/A   Clear
10:55 AM 56.1 °F - 22.8 °F 28% 30.22 in 10.0 mi SW 3.5 mph - N/A   Clear
11:55 AM 59.2 °F - 22.6 °F 25% 30.18 in 10.0 mi WNW 3.5 mph - N/A   Clear
12:55 PM 61.2 °F - 22.3 °F 22% 30.16 in 10.0 mi Calm Calm - N/A   Clear
1:55 PM 63.5 °F - 22.1 °F 21% 30.14 in 10.0 mi Variable 3.5 mph - N/A   Clear
2:55 PM 64.0 °F - 27.3 °F 25% 30.14 in 10.0 mi South 8.1 mph - N/A   Clear
3:55 PM 60.1 °F - 30.6 °F 33% 30.14 in 10.0 mi South 9.2 mph - N/A   Clear
4:55 PM 52.9 °F - 33.4 °F 48% 30.14 in 10.0 mi South 6.9 mph - N/A   Clear
5:55 PM 47.8 °F - 33.8 °F 58% 30.15 in 10.0 mi SSW 4.6 mph - N/A   Clear
6:55 PM 45.3 °F - 34.2 °F 65% 30.17 in 10.0 mi Calm Calm - N/A   Clear
7:55 PM 40.5 °F - 32.5 °F 73% 30.17 in 10.0 mi Calm Calm - N/A   Clear
8:55 PM 35.4 °F - 30.6 °F 82% 30.17 in 10.0 mi Calm Calm - N/A   Clear
9:55 PM 34.2 °F - 30.4 °F 86% 30.17 in 10.0 mi Calm Calm - N/A   Clear
10:55 PM 32.4 °F - 29.3 °F 88% 30.17 in 10.0 mi Calm Calm - N/A   Clear
11:55 PM 32.0 °F - 28.8 °F 88% 30.16 in 10.0 mi Calm Calm - N/A   Clear